Terminal Aerodrome Forecast
Issued by NWS Denver/Boulder, CO

Home | Current Version | Previous Version | Text Only | Print | Product List | Glossary On
Versions: 1 2 3 4 5 6 7 8 9 10 11 12 13 14 15 16 17 18 19 20 21 22 23 24 25 26 27 28 29 30 31 32 33 34 35 36 37 38 39 40 41 42 43 44 45 46 47 48 49 50
000
FTUS45 KBOU 251139
TAFDEN
TAF
KDEN 251139Z 2512/2618 16011KT P6SM FEW100 SCT220
     FM251400 20009KT P6SM FEW220
     FM251700 27008KT P6SM SCT220
     FM252000 32010KT P6SM FEW140 BKN220
      TEMPO 2520/2523 35014G20KT
     FM260200 25008KT P6SM SCT220
     FM260600 21012KT P6SM SKC=

USA.gov is the U.S. government's official web portal to all federal, state and local government web resources and services.